Springfield, MO

8:31 PM CST on November 19, 2017 (GMT -0600)
Springfield-Branson Regional

Weather History for KSGF - January, 2014

Change the Weather History Date:

Wednesday, January 1, 2014

  Actual Average Record
Temperature  
Mean Temperature 34 °F 33 °F  
Max Temperature 50 °F 42 °F 70 °F (1965)
Min Temperature 18 °F 23 °F -8 °F (1928)
Degree Days  
Heating Degree Days 31 32  
Month to date heating degree days 31 32  
Since 1 July heating degree days 1954 1842  
Cooling Degree Days 0 0  
Month to date cooling degree days 0 0  
Year to date cooling degree days 0 0  
Moisture  
Dew Point 22 °F    
Average Humidity 63    
Maximum Humidity 84    
Minimum Humidity 42    
Precipitation  
Precipitation 0.02 in 0.09 in 1.84 in (1892)
Month to date precipitation 0.09  
Year to date precipitation 0.09  
Snow  
Snow 1.00 in - - ()
Month to date snowfall 1.0  
Since 1 July snowfall 14.5  
Snow Depth 0.00 in    
Sea Level Pressure  
Sea Level Pressure 30.06 in    
Wind  
Wind Speed 14 mph (NNE)    
Max Wind Speed 24 mph    
Max Gust Speed 28 mph    
Visibility 7 miles    
Events Snow    
T = Trace of Precipitation, MM = Missing Value Source: NWS Daily Summary

Daily Weather History Graph

Daily Weather History Graph

Search for Another Location

Airport or City:

Trip Planner

Search our weather history database for the weather conditions in past years. The results will help you decide how hot, cold, wet, or windy it might be!

Date:

Astronomy

Jan. 01, 2014 Rise Set
Actual Time 7:27 AM CST 5:07 PM CST
Civil Twilight 6:58 AM CST 5:36 PM CST
Nautical Twilight 6:25 AM CST 6:08 PM CST
Astronomical Twilight 5:54 AM CST 6:40 PM CST
Moon 7:19 AM CST (1/1) 5:51 PM CST (1/1)
Length of Visible Light 10h 37m
Length of Day
9h 39m
New Moon, 0% of the Moon is Illuminated
Jan 1
New Moon
Jan 7
First Quarter
Jan 15
Full
Jan 23
Last Quarter
Jan 30
New

Hourly Weather History & Observations

Time (CST) Temp. Windchill Dew Point Humidity Pressure Visibility Wind Dir Wind Speed Gust Speed Precip Events Conditions
12:52 AM 34.0 °F 26.0 °F 23.0 °F 64% 30.14 in 10.0 mi SSE 10.4 mph - N/A   Clear
1:52 AM 34.0 °F 24.2 °F 23.0 °F 64% 30.11 in 10.0 mi SSE 15.0 mph - N/A   Clear
2:52 AM 33.1 °F 23.9 °F 21.9 °F 64% 30.11 in 10.0 mi SSE 12.7 mph - N/A   Clear
3:52 AM 32.0 °F 22.5 °F 23.0 °F 69% 30.09 in 10.0 mi SSE 12.7 mph - N/A   Clear
4:52 AM 32.0 °F 22.1 °F 23.0 °F 69% 30.07 in 10.0 mi SSE 13.8 mph - N/A   Clear
5:52 AM 32.0 °F 22.1 °F 23.0 °F 69% 30.07 in 10.0 mi SSE 13.8 mph - N/A   Clear
6:52 AM 32.0 °F 21.6 °F 24.1 °F 73% 30.06 in 10.0 mi SSE 15.0 mph - N/A   Clear
7:52 AM 33.1 °F 23.4 °F 24.1 °F 70% 30.07 in 10.0 mi SSE 13.8 mph - N/A   Clear
8:52 AM 36.0 °F 26.7 °F 25.0 °F 64% 30.07 in 10.0 mi SSE 15.0 mph - N/A   Clear
9:52 AM 39.0 °F 30.3 °F 25.0 °F 57% 30.07 in 10.0 mi SSE 16.1 mph - N/A   Clear
10:52 AM 42.1 °F 34.9 °F 25.0 °F 51% 30.05 in 10.0 mi South 13.8 mph - N/A   Clear
11:52 AM 45.0 °F 39.7 °F 25.0 °F 46% 30.01 in 10.0 mi SSE 10.4 mph - N/A   Clear
12:52 PM 48.9 °F - 26.1 °F 41% 29.96 in 10.0 mi South 8.1 mph - N/A   Clear
1:52 PM 48.9 °F - 26.1 °F 41% 29.94 in 10.0 mi SSE 5.8 mph - N/A   Mostly Cloudy
2:52 PM 48.0 °F - 27.0 °F 44% 29.92 in 10.0 mi ESE 9.2 mph - N/A   Scattered Clouds
3:52 PM 46.0 °F 41.4 °F 27.0 °F 47% 29.91 in 10.0 mi East 9.2 mph - N/A   Clear
4:52 PM 44.1 °F 40.8 °F 27.0 °F 51% 29.94 in 10.0 mi East 5.8 mph - N/A   Mostly Cloudy
5:52 PM 42.1 °F 36.1 °F 28.0 °F 58% 29.97 in 10.0 mi NNW 10.4 mph - N/A   Overcast
6:52 PM 35.1 °F 23.8 °F 26.1 °F 70% 30.01 in 10.0 mi NNW 20.7 mph - N/A   Overcast
7:52 PM 28.9 °F 15.8 °F 21.9 °F 75% 30.05 in 10.0 mi NNW 20.7 mph - N/A   Overcast
8:39 PM 27.0 °F 13.5 °F 19.9 °F 75% 30.03 in 10.0 mi North 19.6 mph - N/A   Overcast
8:52 PM 26.1 °F 12.7 °F 19.9 °F 78% 30.06 in 9.0 mi NNW 18.4 mph - N/A   Overcast
9:47 PM 24.8 °F 10.0 °F 19.4 °F 80% 30.07 in 1.8 mi NNW 21.9 mph - 0.00 in Snow Light Snow
9:48 PM 24.1 °F 9.8 °F 19.9 °F 84% 30.11 in 1.8 mi NNW 19.6 mph 27.6 mph 0.00 in Snow Light Snow
10:17 PM 23.0 °F 8.7 °F 19.0 °F 85% 30.08 in 0.8 mi NNW 18.4 mph - 0.00 in Snow Light Snow
10:27 PM 23.0 °F 8.0 °F 19.0 °F 85% 30.08 in 0.8 mi NNW 20.7 mph - 0.00 in Snow Light Snow
10:44 PM 21.9 °F 6.5 °F 18.0 °F 85% 30.10 in 1.0 mi NNW 20.7 mph - 0.00 in Snow Light Snow
10:52 PM 21.9 °F 6.2 °F 18.0 °F 85% 30.13 in 1.2 mi NNW 21.9 mph - 0.02 in Snow Light Snow
10:59 PM 21.9 °F 6.5 °F 18.0 °F 85% 30.09 in 1.8 mi NNW 20.7 mph - 0.00 in Snow Light Snow
11:04 PM 21.0 °F 5.7 °F 17.1 °F 85% 30.09 in 2.0 mi NNW 19.6 mph - 0.00 in Snow Light Snow
11:08 PM 21.0 °F 7.1 °F 18.0 °F 88% 30.10 in 1.5 mi NNW 16.1 mph - 0.00 in Snow Light Snow
11:17 PM 21.0 °F 6.6 °F 17.1 °F 85% 30.10 in 2.0 mi NNW 17.3 mph - 0.00 in Snow Light Snow
11:24 PM 21.0 °F 5.7 °F 18.0 °F 88% 30.10 in 2.0 mi NNW 19.6 mph - 0.00 in Snow Light Snow
11:39 PM 19.9 °F 3.5 °F 17.1 °F 89% 30.10 in 1.2 mi NNW 21.9 mph - 0.00 in Snow Light Snow
11:43 PM 19.9 °F 4.3 °F 16.0 °F 85% 30.11 in 1.0 mi NNW 19.6 mph - 0.00 in Snow Light Snow
11:52 PM 19.0 °F 2.0 °F 16.0 °F 88% 30.14 in 0.8 mi NNW 23.0 mph 27.6 mph 0.00 in Snow Light Snow